Location: Newark
(25.4297°S, 49.2719°W)
Time: 00:00:18
(UTC+00:00)

Tiangong - Pass Details

Date: 23 June 2021
Orbit: 373 x 386 km, 41.5° (Epoch: 02 August)

Event Time Altitude Azimuth Distance (km) Brightness Sun altitude
Rises 22:17:19 0° 225° (SW) 2,260 5.3 -22.2°
Reaches altitude 10° 22:19:33 10° 214° (SW) 1,400 4.1 -22.7°
Enters shadow 22:19:46 11° 212° (SSW) 1,322 3.9 -22.7°
